Flag for Canada Weather past 2 weeks in Rae-Edzo, Northwest Territories, Canada

Now
46 °F

Cool.


Feels Like: 41 °F
Forecast: 53 / 61 °F
Wind: 10 mph from North

Location: Lac La Martre

Current Time: Jul 31, 2014 at 6:17:20 AM

Latest Report: Jul 31, 2014 at 5:00 AM


Visibility: N/A

Pressure: 30.15 "Hg

Humidity: 77%

Dew point: 39 °F

Location of Rae-EdzoLocation

Historic Weather in Rae-Edzo — Graph

°F

Rae-Edzo temperature yesterday

Maximum temperature yesterday: 82 °F (at 1:00 PM)
Minimum temperature yesterday: 49 °F (at 11:00 PM)
Average temperature yesterday: 67 °F

Past Weeks' High & Low Weather Summary

 TemperatureHumidityPressure
High85 °F (Jul 23, 3:00 PM)97% (Jul 28, 6:00 AM)30.15 "Hg (Jul 28, 6:00 AM)
Low31 °F (Jul 18, 3:00 AM)19% (Jul 24, 3:00 PM)29.58 "Hg (Jul 18, 10:00 PM)
Average65 °F60%29.82 "Hg
* Reported Jul 16 5:00 AM — Jul 31 5:00 AM, Rae-Edzo, Weather by CustomWeather, © 2014

Note: Actual official high and low records may vary slightly from our data, if they occured in-between our weather recording intervals... More about our weather records

Advertising

Rae-Edzo weather history for previous 24 hours

 ConditionsComfort  
Time TempWeatherWind HumidityBarometerVisibility
5:00 AM
Jul 31
46 °FCool.10 mph77%30.15 "HgN/A
4:00 AM47 °FCool.8 mph77%30.13 "HgN/A
3:00 AM48 °FCool.9 mph74%30.11 "HgN/A
2:00 AM49 °FCool.12 mph76%30.09 "HgN/A
1:00 AM50 °FCool.10 mph78%30.07 "HgN/A
12:00 AM50 °FCool.10 mph78%30.06 "HgN/A
11:00 PM
Jul 30
49 °FCool.9 mph85%30.05 "HgN/A
10:00 PM52 °FCool.13 mph83%30.03 "HgN/A
9:00 PM54 °FCool.15 mph84%30.00 "HgN/A
8:00 PM55 °FCool.13 mph88%29.96 "HgN/A
7:00 PM58 °FCool.14 mph84%29.94 "HgN/A
6:00 PM62 °FCool.12 mph85%29.91 "HgN/A
5:00 PM67 °FMild.15 mph79%29.87 "HgN/A
4:00 PM70 °FMild.15 mph75%29.85 "HgN/A
3:00 PM72 °FMild.12 mph71%29.82 "HgN/A
2:00 PM76 °FMild.12 mph61%29.79 "HgN/A
1:00 PM82 °FPleasantly warm.5 mph34%29.80 "HgN/A
12:00 PM80 °FPleasantly warm.3 mph40%29.81 "HgN/A
11:00 AM77 °FMild.3 mph45%29.82 "HgN/A
10:00 AM74 °FMild.5 mph50%29.84 "HgN/A
9:00 AM71 °FMild.6 mph61%29.85 "HgN/A
8:00 AM68 °FMild.3 mph68%29.88 "HgN/A
7:00 AM67 °FMild.3 mph67%29.88 "HgN/A
6:00 AM65 °FMild.2 mph69%29.86 "HgN/A
Weather by CustomWeather, © 2014

See weather overviewHow to use our weather pages